Terminal Aerodrome Forecast
Issued by NWS

Home | Current Version | Previous Version | Text Only | Print | Product List | Glossary On
Versions: 1 2 3 4 5 6 7 8 9 10 11 12 13 14 15 16 17 18 19 20 21
816
FTUS42 KKEY 121743
TAFMTH
TAF
KMTH 121743Z 1218/1318 03010G16KT P6SM SKC
     FM122200 03007KT P6SM SKC
     FM130400 36006KT P6SM SKC
     FM131400 36011G17KT P6SM SKC=

USA.gov is the U.S. government's official web portal to all federal, state and local government web resources and services.